SCP
0 0 0 0 0 0 0 0 0 0 0 0 0 0 0 0 0 0 0 0 -0 -0 0 -0 -0 -0 -0 -0 -0 -0 -0 -0 -0 -0 -0 -0 -0 -0 -0 -0 -0 -0 -0 -0 -0 -0 -0 -0 0
0 0 0 0 0 0 0 0 0 0 0 0 0 0 0 0 0 0 0 0 -0 0 0 0 -0 -0 -0 -0 -0 -0 -0 -0 -0 -0 -0 -0 -0 -0 -0 -0 -0 -0 -0 -0 -0 -0 -0 -0 -0
0 0 0 0 0 0 0 0 0 0 0 0 0 0 0 0 0 0 0 0 0 0 0 0 0 -0 -0 -0 -0 -0 -0 -0 -0 -0 -0 -0 -0 -0 -0 -0 -0 -0 -0 -0 -0 -0 -0 0 0
0 0 0 0 0 0 0 0 0 0 0 0 0 0 0 0 0 0 0 0 0 0 0 0 -0 -0 0 0 0 -0 -0 -0 -0 -0 -0 -0 -0 0 0 0 0 0 0 0 0 0 0 0 0
0 0 0 0 0 0 0 0 0 0 0 0 0 0 0 0 0 0 -0 0 0 0 0 0 0 0 0 0 0 0 0 0 0 0 0 0 0 0 0 0 0 0 0 0 0 0 0 0 0
0 0 0 0 0 0 0 0 0 0 0 0 0 0 0 0 0 0 0 0 0 0 0 0 0 0 0 0 0 0 0 0 0 0 0 0 0 0 0 0 0 0 0 0 0 0 0 0 0
0 0 0 0 0 0 0 0 0 0 0 0 0 0 0 0 0 0 0 0 0 0 0 0 0 0 0 0 0 0 0 0 0 0 0 0 0 0 0 0 0 0 0 0 0 0 0 0 0
0 0 0 0 0 0 0 0 0 0 0 0 0 0 0 0 -0 0 0 0 0 0 0 0 0 0 0 0 0 0 0 0 0 0 0 0 0 0 0 0 0 0 0 0 0 0 0 0 0
0 0 0 0 0 0 0 0 0 0 0 0 0 0 0 0 -0 0 0 0 0 0 0 0 0 0 0 0 0 0 0 0 0 0 0 0 0 0 0 0 0 0 0 0 0 0 0 0 0
0 0 0 0 0 0 0 0 0 0 0 0 0 0 0 0 -0 -0 0 -0 0 0 0 0 0 0 0 0 0 0 0 0 0 0 0 0 0 0 0 0 0 0 0 0 0 0 0 0 0
0 0 0 0 0 0 0 0 0 0 0 0 0 0 0 0 0 0 0 0 -0 0 0 0 0 0 0 0 0 0 0 0 0 0 0 0 0 0 0 0 0 0 0 0 0 0 0 0 0
0 0 0 0 0 0 0 0 0 0 0 0 0 0 0 0 0 0 0 0 0 0 0 0 0 0 0 0 0 0 0 0 0 0 0 0 0 0 0 0 0 0 0 0 0 0 0 0 0
0 0 0 0 0 0 0 0 0 0 0 0 0 0 0 0 0 0 0 0 0 0 0 0 0 0 0 0 0 0 0 0 0 0 0 0 0 0 0 0 0 0 0 0 0 0 0 0 0
0 0 0 0 0 0 0 0 0 0 0 0 0 0 0 0 0 0 0 0 0 0 0 0 0 0 0 0 0 0 0 0 0 0 0 0 0 0 0 0 0 0 0 0 0 0 0 0 0
0 0 0 0 0 0 0 0 0 0 0 0 0 0 0 0 0 0 0 0 0 0 0 0 0 0 0 0 0 0 0 0 0 0 0 0 0 0 0 0 0 0 0 0 0 0 0 0 0
0 0 0 0 0 0 0 0 0 0 0 0 0 0 0 0 0 0 0 0 0 0 0 0 0 0 0 0 0 0 0 0 0 0 0 0 0 0 0 0 0 0 0 0 0 0 0 0 0
0 0 0 0 0 0 0 0 0 0 0 0 0 0 0 0 0 0 0 0 0 0 0 0 0 0 0 0 0 0 0 0 0 0 0 0 0 0 0 0 0 0 0 0 0 0 0 0 0
0 0 0 0 0 0 0 0 0 0 0 0 0 0 0 0 0 0 0 0 0 0 0 0 0 0 0 0 0 0 0 0 0 0 0 0 0 0 0 0 0 0 0 0 0 0 0 0 0
0 0 0 0 0 0 0 0 0 -0 0 0 0 0 0 0 0 0 0 0 0 0 0 0 0 0 0 0 0 0 0 0 0 0 0 0 0 0 0 0 0 0 0 0 0 0 0 0 0
0 0 0 0 0 0 0 0 0 0 0 0 0 0 0 0 0 0 0 0 0 0 0 0 0 0 0 0 0 0 0 0 0 0 0 0 0 0 0 0 0 0 0 0 0 0 0 0 0
0 0 0 0 0 0 0 -0 0 0 0 0 0 0 0 0 0 0 0 0 0 0 0 0 0 0 0 0 0 0 0 0 0 0 0 0 0 0 0 0 0 0 0 0 0 0 0 0 0
0 0 0 0 0 0 0 -0 0 0 0 0 0 0 0 0 0 0 0 0 0 0 0 0 0 0 0 0 0 0 0 0 0 0 0 0 0 0 0 0 0 0 0 0 0 0 0 0 0
0 0 0 0 0 0 0 0 0 0 0 0 0 0 0 -0 0 0 0 0 0 0 0 0 0 0 0 0 0 0 0 0 0 0 0 0 0 0 0 0 0 0 0 0 0 0 0 0 0
0 0 0 0 0 0 0 0 0 0 0 0 0 0 0 0 -0 0 0 0 0 0 0 0 0 0 0 0 0 0 0 0 0 0 0 0 0 0 0 0 0 0 0 0 0 0 0 0 0
0 0 0 0 0 0 0 0 0 0 0 0 0 0 0 0 0 0 0 0 0 0 0 0 0 0 0 0 0 0 0 0 0 0 0 0 0 0 0 0 0 0 0 0 0 0 0 0 0
0 0 0 0 0 0 0 0 0 0 0 0 0 0 0 0 0 0 0 0 0 0 0 0 0 0 0 0 0 0 0 0 0 0 0 0 0 0 0 0 0 0 0 0 0 0 0 0 0
0 0 0 0 0 0 0 0 0 0 0 0 0 0 0 0 0 0 0 0 0 0 0 0 0 0 0 0 0 0 0 0 0 0 0 0 0 0 0 0 0 0 0 0 0 0 0 0 0
0 0 0 0 0 0 0 0 0 0 0 0 0 0 0 0 0 0 0 0 0 0 0 0 0 0 0 0 0 0 0 0 0 0 0 0 0 0 0 0 0 0 0 0 0 0 0 0 0
0 0 0 0 0 0 0 0 0 0 0 0 0 0 -0 0 0 0 0 0 0 0 0 0 0 0 0 0 0 0 0 0 0 0 0 0 0 0 0 0 0 0 0 0 0 0 0 0 0
0 0 0 0 0 0 0 0 0 0 0 0 0 0 0 -0 0 0 0 0 0 0 0 0 0 0 0 0 0 0 0 0 0 0 0 0 0 0 0 0 0 0 0 0 0 0 0 0 0
Wind_Speed_500mb
10 9 6 1 7 9 8 10 4 5 2 4 10 8 14 9 10 9 11 24 28 33 33 31 27 26 25 24 26 23 22 21 20 18 15 10 9 8 8 9 9 9 10 10 12 11 9 9 9
10 9 5 4 7 3 10 10 11 9 10 18 12 12 4 7 10 7 23 29 31 34 33 30 29 29 26 24 22 25 27 23 23 21 17 14 14 14 15 14 14 14 13 15 17 17 14 14 14
10 7 2 8 6 8 8 10 11 6 14 12 7 5 6 7 18 11 21 26 32 37 36 32 30 30 28 26 24 24 23 24 25 21 17 17 17 17 16 14 15 15 17 19 19 19 20 21 21
8 5 5 6 11 14 11 11 12 13 7 9 7 4 8 17 6 13 24 26 34 41 40 36 35 32 30 28 29 26 25 27 23 20 18 15 14 13 13 13 13 15 17 18 19 20 19 19 20
9 4 5 3 10 11 10 10 32 10 9 13 16 7 9 15 26 18 20 26 36 45 45 40 38 34 32 31 29 27 28 22 20 16 14 13 13 12 11 10 10 9 8 9 10 11 13 14 15
4 4 4 6 11 9 8 22 19 13 12 9 11 5 10 19 26 26 25 27 36 43 44 43 40 37 36 33 29 26 24 20 18 16 13 11 8 7 5 4 2 0 3 6 8 10 11 12 13
7 7 8 8 10 10 10 27 14 16 16 17 10 11 13 28 26 28 27 31 37 46 48 45 43 41 39 35 32 29 27 25 23 20 17 13 10 7 5 2 3 5 7 9 11 12 13 13 13
2 8 6 8 6 11 5 15 6 20 21 14 29 13 12 24 32 34 34 37 42 48 50 49 48 46 44 41 36 32 30 29 27 24 21 18 16 13 10 7 5 5 9 11 12 14 15 16 15
5 5 6 10 7 8 5 7 10 10 12 22 26 34 22 15 35 40 43 47 50 53 55 56 54 52 50 46 39 36 34 32 29 25 23 20 17 16 14 10 8 9 11 11 14 16 17 19 22
8 6 16 12 5 7 8 16 13 10 17 20 37 45 47 36 38 49 52 55 56 56 59 61 61 59 56 51 45 43 42 39 36 32 29 25 23 19 17 14 13 13 13 15 17 19 20 21 24
12 12 11 17 14 11 10 10 18 14 14 41 47 54 56 50 51 55 58 61 58 55 60 61 63 63 60 55 50 49 47 46 42 39 35 32 28 22 18 17 17 18 19 19 18 20 24 26 26
8 30 34 26 34 13 9 11 12 38 66 46 40 35 46 60 65 65 64 63 62 63 63 62 64 67 65 59 56 53 52 50 47 43 39 33 28 24 22 22 22 22 21 22 24 24 23 26 30
13 15 33 43 41 31 33 35 23 49 73 53 53 52 52 53 60 66 69 66 67 69 68 67 68 69 68 67 63 61 57 54 49 46 42 38 34 31 30 27 26 26 25 25 24 25 29 31 31
7 16 32 33 46 32 16 25 12 77 64 46 51 72 73 74 79 71 73 78 80 73 75 71 72 71 70 71 69 66 62 57 55 50 45 41 39 37 34 32 29 29 27 27 27 29 31 33 35
11 16 16 26 31 17 25 19 23 82 60 60 55 55 61 75 72 79 77 79 78 77 77 77 74 75 74 74 72 70 67 65 60 55 51 49 46 43 40 37 34 32 30 29 30 32 34 35 36
6 4 11 1 16 9 26 28 24 51 50 58 61 63 65 68 72 76 79 79 79 77 79 77 78 79 78 76 74 74 72 70 64 61 57 53 52 49 45 41 37 35 33 32 33 34 36 36 36
3 12 16 23 29 10 14 22 22 27 40 55 64 68 72 75 77 79 80 79 79 78 76 77 81 83 81 76 73 74 74 74 69 64 61 59 57 53 49 44 41 38 37 37 37 37 39 38 38
17 12 12 17 8 8 13 31 31 54 33 48 66 74 78 81 89 83 86 83 78 80 81 79 81 84 82 75 73 74 75 76 73 70 66 64 61 58 53 49 46 42 41 39 37 37 38 39 41
6 13 14 18 19 11 24 32 37 64 43 48 71 88 92 95 108 96 96 89 86 85 89 90 90 87 86 86 84 83 85 83 82 77 71 69 64 61 59 55 52 47 43 39 37 35 35 37 39
27 33 39 30 34 15 30 45 34 29 51 64 67 78 93 100 100 106 102 84 75 77 87 97 96 92 89 88 86 86 83 84 83 79 77 74 70 67 64 61 56 50 46 42 37 34 35 36 34
31 30 34 36 13 11 20 34 24 28 54 70 78 87 98 101 108 105 97 83 70 73 80 93 98 95 91 88 87 87 84 83 85 86 85 82 76 72 69 65 60 55 50 43 38 35 36 34 32
42 25 30 21 6 23 4 39 14 17 28 24 54 75 82 94 98 100 94 77 70 73 74 86 97 94 89 88 87 94 94 92 94 94 91 85 80 77 73 69 64 59 52 47 40 37 37 37 34
35 9 13 6 8 11 11 12 7 17 16 25 31 64 77 84 91 87 82 66 63 63 67 78 91 92 89 87 88 91 93 89 90 91 88 85 82 80 76 71 67 64 59 53 47 40 39 39 36
5 7 9 9 3 23 24 19 5 13 17 12 21 64 76 69 72 83 54 49 53 58 67 79 90 90 88 86 90 92 90 91 93 93 87 85 86 83 79 74 72 68 64 57 50 44 40 39 36
8 11 7 7 1 25 17 15 42 11 17 24 27 53 63 71 82 74 54 46 56 61 67 78 86 90 91 90 89 89 91 92 90 91 89 87 88 91 87 79 77 74 67 60 54 46 42 41 38
22 24 13 16 28 44 12 23 24 21 27 51 59 68 73 80 79 67 42 43 51 61 66 75 83 89 92 88 90 92 92 92 92 90 89 90 89 86 82 78 76 72 68 63 56 49 43 41 41
6 12 32 3 2 1 22 30 18 11 15 16 31 46 72 77 68 54 46 43 44 53 63 73 77 85 91 92 96 97 95 94 95 91 88 90 89 85 80 77 76 74 71 67 59 51 45 44 45
14 3 3 3 5 16 30 11 31 19 30 13 17 28 50 44 45 49 46 41 39 45 53 61 68 80 91 99 100 100 99 97 96 92 90 89 89 88 82 79 80 77 71 68 62 55 50 49 48
1 10 10 5 10 30 36 34 14 10 11 11 13 30 46 41 32 21 24 32 36 36 48 49 66 82 96 95 98 104 107 106 105 101 95 90 89 86 83 82 84 81 76 71 65 59 56 54 52
9 26 26 23 26 18 30 36 55 39 40 28 43 52 47 36 29 22 27 29 36 47 52 69 73 83 86 88 96 102 109 112 112 113 107 98 94 88 84 84 85 83 80 76 70 66 60 57 51
Wind_Direction_500mb
180 193 206 358 37 57 274 267 229 180 132 151 151 166 181 137 165 207 178 179 185 190 197 199 200 197 197 184 188 193 198 199 207 212 205 199 201 216 234 234 240 256 267 271 283 296 295 289 289
174 190 177 94 90 26 268 253 208 212 162 137 129 119 130 211 183 198 173 183 196 195 196 196 194 199 204 205 205 202 205 202 208 210 208 213 234 246 246 250 254 250 248 257 263 271 275 274 271
178 183 163 104 126 198 234 237 211 204 166 188 162 187 190 213 204 213 199 203 196 195 196 196 196 200 201 205 209 210 213 215 221 227 225 231 237 242 247 251 251 255 260 265 272 271 268 267 268
170 177 73 97 233 258 236 244 195 152 188 192 166 234 241 210 193 212 208 209 202 193 195 196 198 201 205 210 213 213 214 224 226 225 231 232 234 240 249 253 259 263 269 276 277 277 275 269 264
170 133 64 302 256 258 246 228 180 174 191 194 181 249 239 230 225 220 218 212 206 196 197 198 202 206 210 210 211 212 220 223 227 226 223 226 234 242 247 249 252 261 272 277 287 297 295 295 286
123 97 73 233 244 253 252 188 180 201 211 183 195 205 245 234 228 228 226 217 209 207 203 204 205 210 209 207 209 212 218 219 218 219 227 231 224 208 194 192 190 234 316 320 326 325 327 322 319
126 100 219 235 258 292 223 184 199 204 191 217 211 176 240 231 218 222 226 219 213 210 213 213 213 213 210 209 209 208 209 208 205 203 197 197 201 208 222 258 326 338 338 337 335 333 329 327 329
190 106 280 253 242 264 222 183 236 206 230 218 207 230 249 255 214 212 219 221 217 216 217 218 218 216 214 217 215 214 212 210 204 197 195 199 204 212 225 241 266 305 317 322 324 325 322 322 321
201 65 245 248 217 264 212 238 223 238 231 208 214 240 246 246 212 212 216 218 219 220 221 222 221 219 218 219 219 216 215 213 210 205 205 209 208 207 208 214 239 272 293 306 315 321 321 319 319
166 152 227 220 222 228 241 226 247 218 229 234 239 242 247 245 223 219 223 227 225 224 224 223 225 223 222 221 219 219 217 215 213 210 213 211 211 218 230 245 262 275 282 292 300 302 307 313 313
191 215 225 264 271 274 247 239 232 215 249 238 241 255 245 242 237 236 235 238 243 234 230 230 229 227 227 225 222 219 218 216 215 213 213 213 218 226 236 255 272 276 283 290 285 292 302 308 308
212 241 241 265 281 279 243 255 239 226 253 262 269 267 258 246 243 243 244 245 243 239 238 235 232 230 228 226 226 225 221 219 218 217 217 221 226 233 241 247 254 265 269 269 283 292 296 301 309
221 249 252 255 261 273 277 257 251 265 267 261 260 253 249 248 251 252 251 250 244 242 240 238 235 233 231 227 226 225 223 222 221 221 221 222 225 231 236 244 254 260 264 272 279 287 297 305 309
274 263 269 273 268 269 231 270 237 272 282 274 262 252 249 251 255 256 251 249 245 244 243 240 239 237 233 233 230 229 227 225 224 225 225 226 228 232 239 248 255 260 262 265 272 282 290 295 302
291 303 303 251 260 236 215 284 222 260 269 277 266 260 253 251 251 252 255 254 255 252 245 241 240 239 236 235 232 230 228 227 226 228 227 229 232 236 240 245 251 255 258 265 273 282 290 297 303
306 332 308 154 141 236 165 262 244 265 258 265 269 269 257 254 254 257 255 254 254 250 248 245 240 238 236 235 232 231 229 229 227 227 229 230 232 234 238 243 247 252 259 267 275 284 290 297 304
297 243 224 302 205 151 184 247 266 252 241 254 269 273 271 261 254 254 255 255 254 253 250 246 241 237 235 232 231 232 230 231 229 228 229 231 232 234 236 240 245 251 258 265 273 282 289 295 302
219 217 250 246 232 184 230 253 271 273 253 252 268 270 270 267 258 257 259 259 257 253 252 245 243 236 232 230 229 230 230 231 230 230 230 231 232 233 236 239 242 246 251 258 268 278 287 294 300
199 219 230 254 265 218 234 244 252 269 268 258 262 264 262 262 267 267 266 265 261 252 247 241 237 234 227 224 223 225 228 228 229 229 230 231 232 234 236 238 241 245 249 257 266 277 286 292 300
243 256 261 267 265 204 254 258 259 260 266 262 259 263 263 267 268 268 270 270 263 255 251 240 236 234 228 226 228 229 231 231 233 232 232 233 233 234 235 237 239 240 245 254 263 275 284 291 301
231 236 251 252 300 241 283 271 252 249 255 263 259 256 264 265 267 270 272 270 262 252 245 241 236 232 228 226 225 228 230 231 231 230 231 232 232 233 235 237 238 239 242 249 258 271 281 289 298
260 228 254 260 278 272 91 292 212 235 245 247 254 262 258 263 266 268 271 267 257 258 247 239 234 231 227 227 228 228 230 227 229 231 232 232 232 234 235 237 237 239 241 247 253 263 273 281 287
259 237 247 236 234 325 203 252 189 204 241 249 254 251 263 275 275 275 271 266 259 248 245 240 231 229 227 230 231 230 231 233 235 234 234 234 234 235 237 237 237 237 239 242 248 257 266 274 280
129 62 24 49 39 268 216 210 60 167 207 248 251 257 262 268 272 274 274 248 240 241 239 235 228 226 228 230 231 231 233 233 234 234 234 234 235 235 235 235 236 237 238 241 247 254 262 267 271
140 112 293 311 70 254 195 220 260 253 221 213 238 252 264 270 267 264 264 240 228 229 233 232 227 227 227 229 230 231 233 235 237 238 238 236 235 235 233 233 233 234 237 239 243 250 260 268 273
209 201 186 208 264 272 145 251 271 225 238 233 247 262 271 269 269 266 244 246 235 230 227 229 230 230 231 232 230 230 231 235 237 239 239 241 241 241 239 236 235 235 236 237 239 245 254 265 270
168 190 231 292 63 10 260 275 283 230 279 292 292 299 286 277 275 266 243 240 229 231 231 232 231 234 236 234 231 231 232 234 236 238 239 240 243 243 241 239 238 234 234 236 238 242 248 257 265
176 172 74 200 197 258 271 242 263 289 275 287 309 311 326 310 269 251 243 238 229 240 245 242 242 243 239 235 235 236 236 235 238 238 240 241 242 242 240 238 236 234 234 235 236 240 246 251 256
253 233 220 220 208 245 258 270 232 197 173 289 297 340 343 330 297 263 256 255 254 251 250 256 252 246 242 242 241 241 241 240 240 240 239 241 243 243 241 235 233 234 235 236 236 237 242 249 254
223 261 243 247 251 234 255 253 280 277 284 277 284 292 297 310 262 248 285 293 282 277 269 282 264 255 252 249 246 247 245 244 243 244 242 240 241 241 240 234 233 234 234 234 235 239 242 248 252
Wind_Speed_850mb
10 9 6 1 7 9 8 10 4 5 2 4 10 8 14 9 10 9 11 24 28 33 33 31 27 26 25 24 26 23 22 21 20 18 15 10 9 8 8 9 9 9 10 10 12 11 9 9 9
10 9 5 4 7 3 10 10 11 9 10 18 12 12 4 7 10 7 23 29 31 34 33 30 29 29 26 24 22 25 27 23 23 21 17 14 14 14 15 14 14 14 13 15 17 17 14 14 14
10 7 2 8 6 8 8 10 11 6 14 12 7 5 6 7 18 11 21 26 32 37 36 32 30 30 28 26 24 24 23 24 25 21 17 17 17 17 16 14 15 15 17 19 19 19 20 21 21
8 5 5 6 11 14 11 11 12 13 7 9 7 4 8 17 6 13 24 26 34 41 40 36 35 32 30 28 29 26 25 27 23 20 18 15 14 13 13 13 13 15 17 18 19 20 19 19 20
9 4 5 3 10 11 10 10 32 10 9 13 16 7 9 15 26 18 20 26 36 45 45 40 38 34 32 31 29 27 28 22 20 16 14 13 13 12 11 10 10 9 8 9 10 11 13 14 15
4 4 4 6 11 9 8 22 19 13 12 9 11 5 10 19 26 26 25 27 36 43 44 43 40 37 36 33 29 26 24 20 18 16 13 11 8 7 5 4 2 0 3 6 8 10 11 12 13
7 7 8 8 10 10 10 27 14 16 16 17 10 11 13 28 26 28 27 31 37 46 48 45 43 41 39 35 32 29 27 25 23 20 17 13 10 7 5 2 3 5 7 9 11 12 13 13 13
2 8 6 8 6 11 5 15 6 20 21 14 29 13 12 24 32 34 34 37 42 48 50 49 48 46 44 41 36 32 30 29 27 24 21 18 16 13 10 7 5 5 9 11 12 14 15 16 15
5 5 6 10 7 8 5 7 10 10 12 22 26 34 22 15 35 40 43 47 50 53 55 56 54 52 50 46 39 36 34 32 29 25 23 20 17 16 14 10 8 9 11 11 14 16 17 19 22
8 6 16 12 5 7 8 16 13 10 17 20 37 45 47 36 38 49 52 55 56 56 59 61 61 59 56 51 45 43 42 39 36 32 29 25 23 19 17 14 13 13 13 15 17 19 20 21 24
12 12 11 17 14 11 10 10 18 14 14 41 47 54 56 50 51 55 58 61 58 55 60 61 63 63 60 55 50 49 47 46 42 39 35 32 28 22 18 17 17 18 19 19 18 20 24 26 26
8 30 34 26 34 13 9 11 12 38 66 46 40 35 46 60 65 65 64 63 62 63 63 62 64 67 65 59 56 53 52 50 47 43 39 33 28 24 22 22 22 22 21 22 24 24 23 26 30
13 15 33 43 41 31 33 35 23 49 73 53 53 52 52 53 60 66 69 66 67 69 68 67 68 69 68 67 63 61 57 54 49 46 42 38 34 31 30 27 26 26 25 25 24 25 29 31 31
7 16 32 33 46 32 16 25 12 77 64 46 51 72 73 74 79 71 73 78 80 73 75 71 72 71 70 71 69 66 62 57 55 50 45 41 39 37 34 32 29 29 27 27 27 29 31 33 35
11 16 16 26 31 17 25 19 23 82 60 60 55 55 61 75 72 79 77 79 78 77 77 77 74 75 74 74 72 70 67 65 60 55 51 49 46 43 40 37 34 32 30 29 30 32 34 35 36
6 4 11 1 16 9 26 28 24 51 50 58 61 63 65 68 72 76 79 79 79 77 79 77 78 79 78 76 74 74 72 70 64 61 57 53 52 49 45 41 37 35 33 32 33 34 36 36 36
3 12 16 23 29 10 14 22 22 27 40 55 64 68 72 75 77 79 80 79 79 78 76 77 81 83 81 76 73 74 74 74 69 64 61 59 57 53 49 44 41 38 37 37 37 37 39 38 38
17 12 12 17 8 8 13 31 31 54 33 48 66 74 78 81 89 83 86 83 78 80 81 79 81 84 82 75 73 74 75 76 73 70 66 64 61 58 53 49 46 42 41 39 37 37 38 39 41
6 13 14 18 19 11 24 32 37 64 43 48 71 88 92 95 108 96 96 89 86 85 89 90 90 87 86 86 84 83 85 83 82 77 71 69 64 61 59 55 52 47 43 39 37 35 35 37 39
27 33 39 30 34 15 30 45 34 29 51 64 67 78 93 100 100 106 102 84 75 77 87 97 96 92 89 88 86 86 83 84 83 79 77 74 70 67 64 61 56 50 46 42 37 34 35 36 34
31 30 34 36 13 11 20 34 24 28 54 70 78 87 98 101 108 105 97 83 70 73 80 93 98 95 91 88 87 87 84 83 85 86 85 82 76 72 69 65 60 55 50 43 38 35 36 34 32
42 25 30 21 6 23 4 39 14 17 28 24 54 75 82 94 98 100 94 77 70 73 74 86 97 94 89 88 87 94 94 92 94 94 91 85 80 77 73 69 64 59 52 47 40 37 37 37 34
35 9 13 6 8 11 11 12 7 17 16 25 31 64 77 84 91 87 82 66 63 63 67 78 91 92 89 87 88 91 93 89 90 91 88 85 82 80 76 71 67 64 59 53 47 40 39 39 36
5 7 9 9 3 23 24 19 5 13 17 12 21 64 76 69 72 83 54 49 53 58 67 79 90 90 88 86 90 92 90 91 93 93 87 85 86 83 79 74 72 68 64 57 50 44 40 39 36
8 11 7 7 1 25 17 15 42 11 17 24 27 53 63 71 82 74 54 46 56 61 67 78 86 90 91 90 89 89 91 92 90 91 89 87 88 91 87 79 77 74 67 60 54 46 42 41 38
22 24 13 16 28 44 12 23 24 21 27 51 59 68 73 80 79 67 42 43 51 61 66 75 83 89 92 88 90 92 92 92 92 90 89 90 89 86 82 78 76 72 68 63 56 49 43 41 41
6 12 32 3 2 1 22 30 18 11 15 16 31 46 72 77 68 54 46 43 44 53 63 73 77 85 91 92 96 97 95 94 95 91 88 90 89 85 80 77 76 74 71 67 59 51 45 44 45
14 3 3 3 5 16 30 11 31 19 30 13 17 28 50 44 45 49 46 41 39 45 53 61 68 80 91 99 100 100 99 97 96 92 90 89 89 88 82 79 80 77 71 68 62 55 50 49 48
1 10 10 5 10 30 36 34 14 10 11 11 13 30 46 41 32 21 24 32 36 36 48 49 66 82 96 95 98 104 107 106 105 101 95 90 89 86 83 82 84 81 76 71 65 59 56 54 52
9 26 26 23 26 18 30 36 55 39 40 28 43 52 47 36 29 22 27 29 36 47 52 69 73 83 86 88 96 102 109 112 112 113 107 98 94 88 84 84 85 83 80 76 70 66 60 57 51
Wind_Direction_850mb
180 193 206 358 37 57 274 267 229 180 132 151 151 166 181 137 165 207 178 179 185 190 197 199 200 197 197 184 188 193 198 199 207 212 205 199 201 216 234 234 240 256 267 271 283 296 295 289 289
174 190 177 94 90 26 268 253 208 212 162 137 129 119 130 211 183 198 173 183 196 195 196 196 194 199 204 205 205 202 205 202 208 210 208 213 234 246 246 250 254 250 248 257 263 271 275 274 271
178 183 163 104 126 198 234 237 211 204 166 188 162 187 190 213 204 213 199 203 196 195 196 196 196 200 201 205 209 210 213 215 221 227 225 231 237 242 247 251 251 255 260 265 272 271 268 267 268
170 177 73 97 233 258 236 244 195 152 188 192 166 234 241 210 193 212 208 209 202 193 195 196 198 201 205 210 213 213 214 224 226 225 231 232 234 240 249 253 259 263 269 276 277 277 275 269 264
170 133 64 302 256 258 246 228 180 174 191 194 181 249 239 230 225 220 218 212 206 196 197 198 202 206 210 210 211 212 220 223 227 226 223 226 234 242 247 249 252 261 272 277 287 297 295 295 286
123 97 73 233 244 253 252 188 180 201 211 183 195 205 245 234 228 228 226 217 209 207 203 204 205 210 209 207 209 212 218 219 218 219 227 231 224 208 194 192 190 234 316 320 326 325 327 322 319
126 100 219 235 258 292 223 184 199 204 191 217 211 176 240 231 218 222 226 219 213 210 213 213 213 213 210 209 209 208 209 208 205 203 197 197 201 208 222 258 326 338 338 337 335 333 329 327 329
190 106 280 253 242 264 222 183 236 206 230 218 207 230 249 255 214 212 219 221 217 216 217 218 218 216 214 217 215 214 212 210 204 197 195 199 204 212 225 241 266 305 317 322 324 325 322 322 321
201 65 245 248 217 264 212 238 223 238 231 208 214 240 246 246 212 212 216 218 219 220 221 222 221 219 218 219 219 216 215 213 210 205 205 209 208 207 208 214 239 272 293 306 315 321 321 319 319
166 152 227 220 222 228 241 226 247 218 229 234 239 242 247 245 223 219 223 227 225 224 224 223 225 223 222 221 219 219 217 215 213 210 213 211 211 218 230 245 262 275 282 292 300 302 307 313 313
191 215 225 264 271 274 247 239 232 215 249 238 241 255 245 242 237 236 235 238 243 234 230 230 229 227 227 225 222 219 218 216 215 213 213 213 218 226 236 255 272 276 283 290 285 292 302 308 308
212 241 241 265 281 279 243 255 239 226 253 262 269 267 258 246 243 243 244 245 243 239 238 235 232 230 228 226 226 225 221 219 218 217 217 221 226 233 241 247 254 265 269 269 283 292 296 301 309
221 249 252 255 261 273 277 257 251 265 267 261 260 253 249 248 251 252 251 250 244 242 240 238 235 233 231 227 226 225 223 222 221 221 221 222 225 231 236 244 254 260 264 272 279 287 297 305 309
274 263 269 273 268 269 231 270 237 272 282 274 262 252 249 251 255 256 251 249 245 244 243 240 239 237 233 233 230 229 227 225 224 225 225 226 228 232 239 248 255 260 262 265 272 282 290 295 302
291 303 303 251 260 236 215 284 222 260 269 277 266 260 253 251 251 252 255 254 255 252 245 241 240 239 236 235 232 230 228 227 226 228 227 229 232 236 240 245 251 255 258 265 273 282 290 297 303
306 332 308 154 141 236 165 262 244 265 258 265 269 269 257 254 254 257 255 254 254 250 248 245 240 238 236 235 232 231 229 229 227 227 229 230 232 234 238 243 247 252 259 267 275 284 290 297 304
297 243 224 302 205 151 184 247 266 252 241 254 269 273 271 261 254 254 255 255 254 253 250 246 241 237 235 232 231 232 230 231 229 228 229 231 232 234 236 240 245 251 258 265 273 282 289 295 302
219 217 250 246 232 184 230 253 271 273 253 252 268 270 270 267 258 257 259 259 257 253 252 245 243 236 232 230 229 230 230 231 230 230 230 231 232 233 236 239 242 246 251 258 268 278 287 294 300
199 219 230 254 265 218 234 244 252 269 268 258 262 264 262 262 267 267 266 265 261 252 247 241 237 234 227 224 223 225 228 228 229 229 230 231 232 234 236 238 241 245 249 257 266 277 286 292 300
243 256 261 267 265 204 254 258 259 260 266 262 259 263 263 267 268 268 270 270 263 255 251 240 236 234 228 226 228 229 231 231 233 232 232 233 233 234 235 237 239 240 245 254 263 275 284 291 301
231 236 251 252 300 241 283 271 252 249 255 263 259 256 264 265 267 270 272 270 262 252 245 241 236 232 228 226 225 228 230 231 231 230 231 232 232 233 235 237 238 239 242 249 258 271 281 289 298
260 228 254 260 278 272 91 292 212 235 245 247 254 262 258 263 266 268 271 267 257 258 247 239 234 231 227 227 228 228 230 227 229 231 232 232 232 234 235 237 237 239 241 247 253 263 273 281 287
259 237 247 236 234 325 203 252 189 204 241 249 254 251 263 275 275 275 271 266 259 248 245 240 231 229 227 230 231 230 231 233 235 234 234 234 234 235 237 237 237 237 239 242 248 257 266 274 280
129 62 24 49 39 268 216 210 60 167 207 248 251 257 262 268 272 274 274 248 240 241 239 235 228 226 228 230 231 231 233 233 234 234 234 234 235 235 235 235 236 237 238 241 247 254 262 267 271
140 112 293 311 70 254 195 220 260 253 221 213 238 252 264 270 267 264 264 240 228 229 233 232 227 227 227 229 230 231 233 235 237 238 238 236 235 235 233 233 233 234 237 239 243 250 260 268 273
209 201 186 208 264 272 145 251 271 225 238 233 247 262 271 269 269 266 244 246 235 230 227 229 230 230 231 232 230 230 231 235 237 239 239 241 241 241 239 236 235 235 236 237 239 245 254 265 270
168 190 231 292 63 10 260 275 283 230 279 292 292 299 286 277 275 266 243 240 229 231 231 232 231 234 236 234 231 231 232 234 236 238 239 240 243 243 241 239 238 234 234 236 238 242 248 257 265
176 172 74 200 197 258 271 242 263 289 275 287 309 311 326 310 269 251 243 238 229 240 245 242 242 243 239 235 235 236 236 235 238 238 240 241 242 242 240 238 236 234 234 235 236 240 246 251 256
253 233 220 220 208 245 258 270 232 197 173 289 297 340 343 330 297 263 256 255 254 251 250 256 252 246 242 242 241 241 241 240 240 240 239 241 243 243 241 235 233 234 235 236 236 237 242 249 254
223 261 243 247 251 234 255 253 280 277 284 277 284 292 297 310 262 248 285 293 282 277 269 282 264 255 252 249 246 247 245 244 243 244 242 240 241 241 240 234 233 234 234 234 235 239 242 248 252